{"data":{"norad_id":30797,"epoch":"2026-05-24T06:09:49.814784Z","epoch_age_seconds":149574,"freshness":"FRESH","line1":"1 30797U 07004D   26144.25682656 -.00000125  00000+0  00000+0 0  9991","line2":"2 30797   7.4697  81.4801 8336217 227.3774 295.2009  0.87589249 40862","mean_motion":0.87589249,"eccentricity":0.8336217,"inclination_deg":7.4697,"raan_deg":81.4801,"arg_perigee_deg":227.3774,"mean_anomaly_deg":295.2009,"bstar":0,"rev_number":4086,"period_min":1644.0373863692,"perigee_km":1298.9769836679,"apogee_km":78229.788395481,"semimajor_km":46142.519689575,"source":"CELESTRAK","updated_at":"2026-05-25T13:37:55.094177Z"}}